sat.trackr.live / text

‹ back to catalog

NAVSTAR 63 (USA 203)

NORAD 34661 · 2009-014A

PAYLOAD ACTIVE UNKNOWN

§ Identity

Operator
Country
US
Launch date
2009-03-24
Launch site
AFETR
Launch vehicle
Mass (kg)
RCS (m²)
2.00

External: N2YO · Heavens-Above · Gunter

§ Orbital elements

Epoch: 2026-09-11T13:16:32.382912Z

Period
717.95 min
Inclination
54.4723°
Eccentricity
0.0146172
Mean motion
2.00570160 rev/d
Perigee alt
19,793.4 km
Apogee alt
20,569.9 km
Semi-major
26,559.8 km
B*
0.0000e+0
RAAN
207.1943°
Arg perigee
61.6085°
Mean anomaly
118.0854°
Rev number
12,801

§ Raw data

NAVSTAR 63 (USA 203)1 34661U 09014A   26254.55315258 -.00000011  00000+0  00000+0 0  99982 34661  54.4723 207.1943 0146172  61.6085 118.0854  2.00570160128010

JSON: /api/v1/satellites/34661 · /tle

For live sub-satellite position, see the globe view (requires WebGL).

§ Visibility from observer

Set your observer location to see the next 7 days of passes ≥ 10°. The values pass through the URL so the page stays shareable.

No JS? Fill the form by hand. The geolocation button needs JavaScript.